Location: Constantia
(34.0183°S, 18.4411°E)
Time: 18:01:29
(UTC+00:00)

ADEOS II - Pass Details

Date: 17 February 2020
Orbit: 800 x 801 km, 98.5° (Epoch: 31 March)

Event Time Altitude Azimuth Distance (km) Brightness Sun altitude
Exits shadow 00:51:44 16° 202° (SSW) 2,005 4.4 -36.7°
Drops below altitude 10° 00:52:46 10° 200° (SSW) 2,402 4.9 -36.6°
Sets 00:55:09 0° 196° (SSW) 3,340 5.8 -36.3°
